TimeMDT,TemperatureF,Dew PointF,Humidity,Sea Level PressureIn,VisibilityMPH,Wind Direction,Wind SpeedMPH,Gust SpeedMPH,PrecipitationIn,Events,Conditions,WindDirDegrees,DateUTC
12:53 AM,60.1,36.0,41,29.92,10.0,NNW,3.5,-,N/A,,Clear,340,2013-08-05 06:53:00
1:53 AM,54.0,39.9,59,29.95,10.0,North,5.8,-,N/A,,Clear,10,2013-08-05 07:53:00
2:53 AM,53.1,39.0,59,29.95,10.0,NE,4.6,-,N/A,,Clear,50,2013-08-05 08:53:00
3:53 AM,51.1,39.0,63,29.96,10.0,NNE,5.8,-,N/A,,Clear,30,2013-08-05 09:53:00
4:53 AM,48.9,39.0,69,29.96,10.0,NNE,3.5,-,N/A,,Clear,30,2013-08-05 10:53:00
5:53 AM,46.9,37.9,71,29.97,10.0,NE,4.6,-,N/A,,Clear,40,2013-08-05 11:53:00
6:53 AM,46.9,37.0,68,29.99,10.0,Calm,Calm,-,N/A,,Clear,0,2013-08-05 12:53:00
7:53 AM,52.0,37.9,59,29.99,10.0,NE,5.8,-,N/A,,Clear,40,2013-08-05 13:53:00
8:53 AM,57.9,37.9,47,30.00,10.0,Calm,Calm,-,N/A,,Clear,0,2013-08-05 14:53:00
9:53 AM,68.0,39.9,36,29.97,10.0,Calm,Calm,-,N/A,,Clear,0,2013-08-05 15:53:00
10:53 AM,75.9,37.0,24,29.95,10.0,North,3.5,-,N/A,,Clear,350,2013-08-05 16:53:00
11:53 AM,81.0,30.9,16,29.94,10.0,Variable,3.5,-,N/A,,Clear,0,2013-08-05 17:53:00
12:53 PM,86.0,33.1,15,29.92,10.0,South,9.2,-,N/A,,Clear,180,2013-08-05 18:53:00
1:53 PM,88.0,33.1,14,29.90,10.0,SSW,12.7,19.6,N/A,,Clear,200,2013-08-05 19:53:00
2:53 PM,91.0,28.0,10,29.87,10.0,SSW,12.7,19.6,N/A,,Clear,210,2013-08-05 20:53:00
3:53 PM,93.0,25.0,9,29.83,10.0,SSW,15.0,21.9,N/A,,Clear,210,2013-08-05 21:53:00
4:53 PM,90.0,26.1,10,29.82,10.0,SSW,13.8,24.2,N/A,,Clear,210,2013-08-05 22:53:00
5:53 PM,90.0,26.1,10,29.81,10.0,WNW,6.9,-,N/A,,Clear,300,2013-08-05 23:53:00
6:53 PM,87.1,28.9,12,29.81,10.0,North,3.5,-,N/A,,Clear,350,2013-08-06 00:53:00
7:53 PM,86.0,37.9,18,29.80,10.0,Calm,Calm,-,N/A,,Clear,0,2013-08-06 01:53:00
8:53 PM,75.9,37.9,25,29.81,10.0,South,6.9,-,N/A,,Clear,180,2013-08-06 02:53:00
9:53 PM,73.9,33.1,22,29.81,10.0,South,9.2,-,N/A,,Clear,180,2013-08-06 03:53:00
10:53 PM,72.0,33.1,24,29.79,10.0,South,11.5,-,N/A,,Clear,190,2013-08-06 04:53:00
11:53 PM,69.1,34.0,27,29.81,10.0,South,6.9,-,N/A,,Clear,190,2013-08-06 05:53:00